This is the latest recevied weather packets stored in our database for station/object VE6EN. If no packets are shown the sender has not sent any weather packets the latest 10 day(s).
| Time | Temp. | Humidity | Pressure | Rain* | Wind** | Luminosity | Snow |
|---|---|---|---|---|---|---|---|
| 1777851600 | 18.89° C | 32% | 1008.2 hPa | 0 mm | - | - | - |
| 1777850999 | 18.89° C | 31% | 1008 hPa | 0 mm | - | - | - |
| 1777850404 | 19.44° C | 30% | 1008 hPa | 0 mm | - | - | - |
| 1777849800 | 19.44° C | 30% | 1008 hPa | 0 mm | - | - | - |
| 1777849206 | 20° C | 29% | 1008 hPa | 0 mm | - | - | - |
| 1777848602 | 20° C | 29% | 1008 hPa | 0 mm | - | - | - |
| 1777847999 | 21.11° C | 27% | 1007.9 hPa | 0 mm | - | - | - |
| 1777847405 | 22.22° C | 26% | 1007.8 hPa | 0 mm | - | - | - |
| 1777846799 | 22.22° C | 26% | 1007.8 hPa | 0 mm | - | - | - |
| 1777846198 | 22.22° C | 25% | 1007.6 hPa | 0 mm | - | - | - |
| 1777845602 | 21.67° C | 24% | 1007.8 hPa | 0 mm | - | - | - |
| 1777845004 | 22.22° C | 23% | 1007.8 hPa | 0 mm | - | - | - |
| 1777844404 | 21.67° C | 25% | 1008 hPa | 0 mm | - | - | - |
| 1777843805 | 21.67° C | 25% | 1008 hPa | 0 mm | - | - | - |
| 1777843200 | 21.67° C | 25% | 1007.9 hPa | 0 mm | - | - | - |
| 1777842604 | 21.67° C | 26% | 1008 hPa | 0 mm | - | - | - |
| 1777842001 | 21.11° C | 26% | 1008.1 hPa | 0 mm | - | - | - |
| 1777841405 | 21.11° C | 24% | 1008.3 hPa | 0 mm | - | - | - |
| 1777840802 | 21.11° C | 25% | 1008.2 hPa | 0 mm | - | - | - |
| 1777840200 | 21.11° C | 26% | 1008.4 hPa | 0 mm | - | - | - |
| 1777839600 | 21.11° C | 22% | 1008.4 hPa | 0 mm | - | - | - |
| 1777839003 | 21.11° C | 22% | 1008.6 hPa | 0 mm | - | - | - |
| 1777838404 | 21.11° C | 22% | 1008.8 hPa | 0 mm | - | - | - |
| 1777837800 | 21.11° C | 21% | 1008.7 hPa | 0 mm | - | - | - |
| 1777837199 | 21.11° C | 21% | 1009 hPa | 0 mm | - | - | - |
* Rain latest hour (hover to see other rain measurements)
** Current wind speed in m/s (hover to see current wind gust speed)